Date String (YYYY-MM-DD hh:mm:ss) UTC,Instrument flags,absolute air pressure of the measurement (hPa),sample flow rate (lpm),inlet stack bypass flow (lpm),air temperature of the measurement (°C),ambient temperature measured by the external sensor (°C),aerosol sample conditioner tube jacket temperature (°C),OPC LED temperature (°C),internal box temperature (°C),relative humidity of the measurement (%),span deviation,mass concentration of particles derived from Lorenz-Mie calculation of OPC scattering (μg/m³),mass concentration of particles derived from Lorenz-Mie calculation of OPC scattering (μg/m³),mass concentration of particles derived from Lorenz-Mie calculation of OPC scattering (μg/m³)
DateTimeUTC,F1_M11,P_M11,Q1_M11,Q2_M11,T1_M11,T2_M11,T3_M11,T4_M11,T5_M11,U1_M11,ZSPAN_M11,X2_M11,X0_M11,X1_M11
2024-04-29 05:00:00,SystemResetWarning,0826.3,5.01,000.00,025.8,025.1,000.0,034.3,027.7,020.5,0000.0,0002.22,0007.86,0001.57
2024-04-29 05:01:00,SystemResetWarning,0826.2,4.99,000.00,025.8,025.1,000.0,034.3,027.7,020.6,0000.0,0002.21,0007.78,0001.55
2024-04-29 05:02:00,SystemResetWarning,0826.2,4.99,000.00,025.8,025.1,000.0,034.4,027.7,020.6,0000.0,0002.22,0007.38,0001.54
2024-04-29 05:03:00,SystemResetWarning,0826.2,5.01,000.00,025.8,025.0,000.0,034.4,027.7,020.6,0000.0,0002.18,0007.59,0001.52
2024-04-29 05:04:00,SystemResetWarning,0826.2,5.02,000.00,025.8,025.0,000.0,034.4,027.7,020.6,0000.0,0002.15,0008.25,0001.50
2024-04-29 05:05:00,SystemResetWarning,0826.3,4.99,000.00,025.8,025.1,000.0,034.4,027.7,020.7,0000.0,0002.12,0007.44,0001.51
2024-04-29 05:06:00,SystemResetWarning,0826.2,4.98,000.00,025.8,025.1,000.0,034.4,027.7,020.6,0000.0,0002.06,0007.28,0001.51
2024-04-29 05:07:00,SystemResetWarning,0826.2,5.00,000.00,025.8,025.1,000.0,034.4,027.7,020.5,0000.0,0002.03,0007.55,0001.50
2024-04-29 05:08:00,SystemResetWarning,0826.2,5.01,000.00,025.8,025.1,000.0,034.4,027.7,020.4,0000.0,0001.96,0008.04,0001.49
2024-04-29 05:09:00,SystemResetWarning,0826.2,4.98,000.00,025.8,025.1,000.0,034.4,027.7,020.2,0000.0,0001.94,0007.94,0001.49
2024-04-29 05:10:00,SystemResetWarning,0826.2,4.99,000.00,025.8,025.0,000.0,034.4,027.7,020.0,0000.0,0001.99,0008.11,0001.49
2024-04-29 05:11:00,SystemResetWarning,0826.2,5.01,000.00,025.8,025.0,000.0,034.4,027.7,020.0,0000.0,0001.95,0007.35,0001.48
2024-04-29 05:12:00,SystemResetWarning,0826.2,5.00,000.00,025.8,025.0,000.0,034.4,027.7,020.1,0000.0,0001.93,0007.03,0001.47
2024-04-29 05:13:00,SystemResetWarning,0826.2,5.00,000.00,025.8,025.0,000.0,034.4,027.7,020.1,0000.0,0001.95,0007.10,0001.47
2024-04-29 05:14:00,SystemResetWarning,0826.2,5.01,000.00,025.8,025.0,000.0,034.4,027.7,020.5,0000.0,0001.92,0006.74,0001.47
2024-04-29 05:15:00,SystemResetWarning,0826.2,4.99,000.00,025.8,025.0,000.0,034.4,027.7,020.5,0000.0,0001.95,0005.20,0001.49
2024-04-29 05:16:00,SystemResetWarning,0826.1,4.99,000.00,025.8,025.0,000.0,034.4,027.7,020.3,0000.0,0001.96,0005.32,0001.48
2024-04-29 05:17:00,SystemResetWarning,0826.1,5.00,000.00,025.8,025.0,000.0,034.4,027.7,020.1,0000.0,0001.97,0005.60,0001.47
2024-04-29 05:18:00,SystemResetWarning,0826.1,5.02,000.00,025.8,025.0,000.0,034.4,027.7,020.0,0000.0,0002.00,0005.79,0001.45
2024-04-29 05:19:00,SystemResetWarning,0826.1,5.01,000.00,025.8,025.0,000.0,034.4,027.7,019.9,0000.0,0002.00,0004.29,0001.44
2024-04-29 05:20:00,SystemResetWarning,0826.1,4.99,000.00,025.8,025.0,000.0,034.4,027.7,019.8,0000.0,0001.95,0003.98,0001.42
2024-04-29 05:21:00,SystemResetWarning,0826.0,5.02,000.00,025.8,025.0,000.0,034.4,027.7,019.6,0000.0,0001.87,0003.64,0001.40
2024-04-29 05:22:00,SystemResetWarning,0826.0,5.00,000.00,025.8,025.0,000.0,034.4,027.7,019.5,0000.0,0001.85,0003.47,0001.38
2024-04-29 05:23:00,SystemResetWarning,0826.0,5.00,000.00,025.8,025.0,000.0,034.4,027.7,019.5,0000.0,0001.85,0003.59,0001.36
2024-04-29 05:24:00,SystemResetWarning,0826.0,5.00,000.00,025.8,025.1,000.0,034.4,027.7,019.5,0000.0,0001.80,0003.48,0001.34
2024-04-29 05:25:00,SystemResetWarning,0826.0,5.00,000.00,025.8,025.1,000.0,034.4,027.7,019.5,0000.0,0001.77,0003.96,0001.31
2024-04-29 05:26:00,SystemResetWarning,0826.1,5.00,000.00,025.8,025.1,000.0,034.4,027.7,019.7,0000.0,0001.75,0004.11,0001.27
2024-04-29 05:27:00,SystemResetWarning,0826.1,5.00,000.00,025.8,025.1,000.0,034.4,027.7,019.7,0000.0,0001.72,0004.16,0001.23
2024-04-29 05:28:00,SystemResetWarning,0826.1,5.00,000.00,025.8,025.0,000.0,034.4,027.7,019.5,0000.0,0001.69,0003.96,0001.21
2024-04-29 05:29:00,SystemResetWarning,0826.2,5.00,000.00,025.8,025.0,000.0,034.4,027.7,019.5,0000.0,0001.65,0004.13,0001.19
2024-04-29 05:30:00,SystemResetWarning,0826.1,5.00,000.00,025.8,025.0,000.0,034.4,027.7,019.4,0000.0,0001.63,0004.11,0001.16
2024-04-29 05:31:00,SystemResetWarning,0826.1,5.00,000.00,025.8,025.0,000.0,034.4,027.7,019.2,0000.0,0001.61,0004.08,0001.12
2024-04-29 05:32:00,SystemResetWarning,0826.0,5.00,000.00,025.8,025.0,000.0,034.4,027.6,019.2,0000.0,0001.58,0004.08,0001.08
2024-04-29 05:33:00,SystemResetWarning,0826.1,5.00,000.00,025.8,025.0,000.0,034.4,027.6,019.2,0000.0,0001.55,0004.01,0001.05
2024-04-29 05:34:00,SystemResetWarning,0826.0,5.00,000.00,025.8,025.0,000.0,034.4,027.6,019.0,0000.0,0001.51,0003.90,0001.02
2024-04-29 05:35:00,SystemResetWarning,0826.0,5.00,000.00,025.8,025.0,000.0,034.4,027.6,018.9,0000.0,0001.49,0003.90,0000.98
2024-04-29 05:36:00,SystemResetWarning,0826.0,5.00,000.00,025.8,025.0,000.0,034.4,027.6,018.7,0000.0,0001.43,0003.39,0000.95
2024-04-29 05:37:00,SystemResetWarning,0826.0,5.00,000.00,025.8,025.0,000.0,034.4,027.6,018.7,0000.0,0001.38,0003.05,0000.92
2024-04-29 05:38:00,SystemResetWarning,0826.0,5.00,000.00,025.8,025.0,000.0,034.4,027.6,018.9,0000.0,0001.34,0003.53,0000.90
2024-04-29 05:39:00,SystemResetWarning,0825.9,5.01,000.00,025.8,025.0,000.0,034.4,027.6,018.8,0000.0,0001.29,0003.47,0000.87
2024-04-29 05:40:00,SystemResetWarning,0825.9,5.00,000.00,025.8,024.9,000.0,034.4,027.6,018.7,0000.0,0001.28,0003.02,0000.85
2024-04-29 05:41:00,SystemResetWarning,0825.9,5.00,000.00,025.8,025.0,000.0,034.3,027.6,018.8,0000.0,0001.25,0002.88,0000.84
2024-04-29 05:42:00,SystemResetWarning,0825.9,4.99,000.00,025.8,025.0,000.0,034.3,027.6,018.7,0000.0,0001.24,0002.87,0000.83
2024-04-29 05:43:00,SystemResetWarning,0825.9,5.00,000.00,025.7,025.0,000.0,034.3,027.6,018.5,0000.0,0001.24,0002.86,0000.84
2024-04-29 05:44:00,SystemResetWarning,0825.9,5.00,000.00,025.8,025.0,000.0,034.3,027.6,018.6,0000.0,0001.25,0002.85,0000.83
2024-04-29 05:45:00,SystemResetWarning,0826.0,4.99,000.00,025.8,025.0,000.0,034.3,027.6,018.7,0000.0,0001.25,0002.88,0000.83
2024-04-29 05:46:00,SystemResetWarning,0826.0,5.00,000.00,025.8,025.0,000.0,034.3,027.6,018.8,0000.0,0001.22,0002.81,0000.82
2024-04-29 05:47:00,SystemResetWarning,0826.1,5.01,000.00,025.7,025.0,000.0,034.3,027.6,019.1,0000.0,0001.21,0002.78,0000.83
2024-04-29 05:48:00,SystemResetWarning,0826.1,5.00,000.00,025.7,025.0,000.0,034.3,027.6,019.3,0000.0,0001.22,0002.85,0000.83
2024-04-29 05:49:00,SystemResetWarning,0826.1,5.00,000.00,025.7,025.0,000.0,034.3,027.6,019.8,0000.0,0001.19,0002.26,0000.83
2024-04-29 05:50:00,SystemResetWarning,0826.0,5.01,000.00,025.7,025.0,000.0,034.3,027.6,020.0,0000.0,0001.20,0002.05,0000.82
2024-04-29 05:51:00,SystemResetWarning,0826.0,5.00,000.00,025.7,025.0,000.0,034.3,027.6,019.8,0000.0,0001.18,0001.99,0000.82
2024-04-29 05:52:00,SystemResetWarning,0826.0,5.00,000.00,025.7,025.0,000.0,034.3,027.6,019.7,0000.0,0001.18,0001.97,0000.82
2024-04-29 05:53:00,SystemResetWarning,0826.0,5.00,000.00,025.7,025.0,000.0,034.3,027.6,019.8,0000.0,0001.18,0001.98,0000.82
2024-04-29 05:54:00,SystemResetWarning,0826.1,4.99,000.00,025.7,025.0,000.0,034.3,027.6,020.0,0000.0,0001.21,0002.05,0000.83
2024-04-29 05:55:00,SystemResetWarning,0826.2,5.00,000.00,025.7,025.0,000.0,034.3,027.6,020.1,0000.0,0001.22,0002.13,0000.85
2024-04-29 05:56:00,SystemResetWarning,0826.2,5.02,000.00,025.7,025.0,000.0,034.3,027.6,019.7,0000.0,0001.24,0002.11,0000.86
2024-04-29 05:57:00,SystemResetWarning,0826.2,5.00,000.00,025.7,024.9,000.0,034.3,027.6,019.6,0000.0,0001.25,0002.14,0000.87
2024-04-29 05:58:00,SystemResetWarning,0826.1,5.00,000.00,025.7,024.9,000.0,034.3,027.6,019.7,0000.0,0001.28,0002.51,0000.87
2024-04-29 05:59:00,SystemResetWarning,0826.0,5.00,000.00,025.7,024.9,000.0,034.3,027.6,019.8,0000.0,0001.30,0002.96,0000.88
